Location: Saint Peter Port
(49.4500°N, 2.5330°W)
Time: 08:31:06
(UTC+01:00)

Cosmos 2242 Rocket - Visible Passes

Search period start: 01 September 2014 00:00
Search period end: 11 September 2014 00:00
Orbit: 619 x 654 km, 82.5° (Epoch: 30 August)

Date Brightness Start Highest point End Pass type
(mag) Time Alt. Az. Time Alt. Az. Time Alt. Az.
01 Sep 5.4 00:56:38 29° N 00:56:38 29° N 00:58:49 10° N visible
01 Sep 6.2 02:34:09 12° NW 02:34:09 12° NW 02:35:04 10° NW visible
01 Sep 6.1 23:41:53 14° NE 23:41:53 14° NE 23:42:41 10° NE visible
02 Sep 5.5 01:19:24 26° NNW 01:19:24 26° NNW 01:21:36 10° N visible
03 Sep 5.7 00:04:38 20° NE 00:04:38 20° NE 00:06:10 10° NNE visible
03 Sep 5.9 01:42:09 19° NW 01:42:09 19° NW 01:44:04 10° NNW visible
04 Sep 5.6 00:27:23 25° NNE 00:27:23 25° NNE 00:29:16 10° NNE visible
04 Sep 6.2 02:04:54 13° NW 02:04:54 13° NW 02:05:58 10° NNW visible
04 Sep 6.2 23:12:37 11° NE 23:12:37 11° NE 23:12:55 10° NE visible
05 Sep 5.7 00:50:08 25° N 00:50:08 25° N 00:52:06 10° N visible
05 Sep 5.9 23:35:21 17° NE 23:35:21 17° NE 23:36:32 10° NNE visible
06 Sep 5.9 01:12:52 20° NNW 01:12:52 20° NNW 01:14:39 10° N visible
06 Sep 5.7 23:58:05 22° NNE 23:58:05 22° NNE 23:59:42 10° NNE visible
07 Sep 6.3 01:35:36 13° NW 01:35:36 13° NW 01:36:44 10° NNW visible
08 Sep 5.8 00:20:48 24° N 00:20:48 24° N 00:22:36 10° N visible
08 Sep 6.0 23:06:00 15° NE 23:06:00 15° NE 23:06:53 10° NNE visible
09 Sep 6.0 00:43:31 20° NNW 00:43:31 20° NNW 00:45:13 10° N visible
09 Sep 5.8 23:28:42 20° NNE 23:28:42 20° NNE 23:30:08 10° NNE visible
10 Sep 6.3 01:06:13 14° NW 01:06:13 14° NW 01:07:27 10° NNW visible
10 Sep 5.8 23:51:24 23° N 23:51:24 23° N 23:53:05 10° N visible
